Location: Peterborough
(44.3091°N, 78.3197°W)
Time: 03:08:38
(UTC-04:00)

S-56A Canister/Altair - Pass Details

Date: 31 March 2023
Orbit: 639 x 2492 km, 38.9° (Epoch: 08 June)

Event Time Altitude Azimuth Distance (km) Brightness Sun altitude
Rises 01:22:16 0° 283° (WNW) 5,898 12.2 -41.6°
Reaches altitude 10° 01:26:50 10° 273° (W) 5,038 11.6 -41.6°
Enters shadow 01:31:25 20° 257° (WSW) 4,355 11.1 -41.5°
Maximum altitude 01:37:56 27° 224° (SW) 3,920 - -41.4°
Drops below altitude 10° 01:48:48 10° 175° (S) 4,888 - -41.1°
Sets 01:53:13 0° 163° (SSE) 5,692 - -41.0°
